Location: Dodgeville, WI 53533, USA
(43.0344°N, 90.0900°W)
Time: 18:52:54
(UTC-06:00)

N. Korean satellite - Pass Details

Date: 24 January 2021
Orbit: 451 x 502 km, 97.2° (Epoch: 06 March)

Event Time Altitude Azimuth Distance (km) Brightness Sun altitude
Rises 17:36:34 0° 206° (SSW) 2,582 11.0 -6.5°
Reaches altitude 10° 17:39:18 10° 228° (SW) 1,699 10.6 -7.0°
Maximum altitude 17:41:36 16° 267° (W) 1,369 10.1 -7.4°
Drops below altitude 10° 17:43:55 10° 307° (NW) 1,695 9.8 -7.8°
Sets 17:46:38 0° 330° (NNW) 2,573 10.4 -8.3°
